WetterOnline ( https://www.wetteronline.de )

Wetter aktuell Kaisersbach

Aktuelles Wetter: Kaisersbach-Cronhütte (489m)

6-stündlich | Neueste Meldungen
Ortszeit Temperatur Wetter
Do, 29.09. 2:00 3.8° C Nebel
Mi, 28.09. 20:00 7.1° C bewölkt
Mi, 28.09. 14:00 9.4° C Sprühregen
Mi, 28.09. 8:00 7.2° C leichter Regen
Mi, 28.09. 2:00 6.5° C Sprühregen
Di, 27.09. 20:00 7.4° C bewölkt
Di, 27.09. 14:00 8.6° C Sprühregen
Di, 27.09. 8:00 7.8° C leichter Regen
Ortszeit Temperatur Wetter
Do, 29.09. 7:00 3.2° C Nebel
Do, 29.09. 6:50 3.2° C Nebel
Do, 29.09. 6:40 3.4° C Nebel
Do, 29.09. 6:30 3.5° C Nebel
Do, 29.09. 6:20 3.5° C Nebel
Do, 29.09. 6:10 3.7° C Nebel
Do, 29.09. 6:00 4.1° C bedeckt
Do, 29.09. 5:30 4.0° C bedeckt
Do, 29.09. 5:00 4.0° C bedeckt
Do, 29.09. 4:30 3.8° C bedeckt
Do, 29.09. 4:00 3.5° C Nebel
Ortszeit Relative Feuchte Sichtweite
Do, 29.09. 2:00 98% 0.9 km
Mi, 28.09. 20:00 96% 35 km
Mi, 28.09. 14:00 79% 35 km
Mi, 28.09. 8:00 93% 17 km
Mi, 28.09. 2:00 95% 20 km
Di, 27.09. 20:00 84% >70 km
Di, 27.09. 14:00 81% 40 km
Di, 27.09. 8:00 92% 14 km
Ortszeit Relative Feuchte Sichtweite
Do, 29.09. 7:00 97% 0.4 km
Do, 29.09. 6:50 97% -
Do, 29.09. 6:40 97% -
Do, 29.09. 6:30 97% 0.6 km
Do, 29.09. 6:20 97% -
Do, 29.09. 6:10 96% -
Do, 29.09. 6:00 97% 30 km
Do, 29.09. 5:30 97% 20 km
Do, 29.09. 5:00 97% 23 km
Do, 29.09. 4:30 97% 22 km
Do, 29.09. 4:00 98% 23 km
Ortszeit Niederschlagsmenge Niederschlagsart
Do, 29.09. 2:00 0.0 l/m2 in 6 Std. -
Mi, 28.09. 20:00 0.8 l/m2 in 12 Std. Regen
Mi, 28.09. 14:00 0.8 l/m2 in 6 Std. Regen
Mi, 28.09. 8:00 11 l/m2 in 12 Std. Regen
Mi, 28.09. 2:00 2 l/m2 in 6 Std. Regen
Di, 27.09. 20:00 8 l/m2 in 12 Std. Regen
Di, 27.09. 14:00 2 l/m2 in 6 Std. Regen
Di, 27.09. 8:00 13 l/m2 in 12 Std. Regen
Ortszeit Niederschlagsmenge Niederschlagsart
Do, 29.09. 7:00 0.0 l/m2 in 1 Std. -
Do, 29.09. 6:50 keine Meldung -
Do, 29.09. 6:40 keine Meldung -
Do, 29.09. 6:30 0.0 l/m2 in 1 Std. -
Do, 29.09. 6:20 keine Meldung -
Do, 29.09. 6:10 keine Meldung -
Do, 29.09. 6:00 0.0 l/m2 in 1 Std. -
Do, 29.09. 5:30 0.0 l/m2 in 1 Std. -
Do, 29.09. 5:00 0.0 l/m2 in 1 Std. -
Do, 29.09. 4:30 0.0 l/m2 in 1 Std. -
Do, 29.09. 4:00 0.0 l/m2 in 1 Std. -
Ortszeit Stärke Spitze Richtung
km/h Bft. km/h Grad Sektor
Do, 29.09. 2:00 2 1 4 260° W
Mi, 28.09. 20:00 0 0 25 - -
Mi, 28.09. 14:00 11 2 25 260° W
Mi, 28.09. 8:00 7 2 32 280° W
Mi, 28.09. 2:00 6 1 22 180° S
Di, 27.09. 20:00 7 2 43 250° W
Di, 27.09. 14:00 9 2 39 240° SW
Di, 27.09. 8:00 18 3 47 240° SW
Ortszeit Stärke Spitze Richtung
km/h Bft. km/h Grad Sektor
Do, 29.09. 7:00 2 1 6 280° W
Do, 29.09. 6:50 2 1 - 280° W
Do, 29.09. 6:40 2 1 - 340° N
Do, 29.09. 6:30 2 1 6 320° NW
Do, 29.09. 6:20 2 1 - 320° NW
Do, 29.09. 6:10 4 1 - 200° S
Do, 29.09. 6:00 0 0 4 - -
Do, 29.09. 5:30 0 0 4 - -
Do, 29.09. 5:00 0 0 4 - -
Do, 29.09. 4:30 0 0 0 - -
Do, 29.09. 4:00 0 0 4 - -
Ortszeit Untergrenze Bedeckung Gattung
total tief tief mittel hoch
Do, 29.09. 2:00 <30 m 8/8 0/8 - - -
Mi, 28.09. 20:00 1020 m 8/8 7/8 - - -
Mi, 28.09. 14:00 600 m 8/8 8/8 - - -
Mi, 28.09. 8:00 270 m 8/8 8/8 - - -
Mi, 28.09. 2:00 570 m 8/8 8/8 - - -
Di, 27.09. 20:00 960 m 7/8 7/8 - - -
Di, 27.09. 14:00 750 m 8/8 8/8 - - -
Di, 27.09. 8:00 210 m 7/8 7/8 - - -
Ortszeit Bedeckungsgrad in Achtel und Wolkenuntergrenze
Do, 29.09. 7:00 4(<30m) 7(5100m) 7(6000m)
Do, 29.09. 6:50 4(<30m) 7(5100m) 7(6000m)
Do, 29.09. 6:40 7
Do, 29.09. 6:30 1(<30m) 8(5400m) 8(6300m)
Do, 29.09. 6:20 1(<30m) 8(5400m) 8(6300m)
Do, 29.09. 6:10 8
Do, 29.09. 6:00 8(2100m)
Do, 29.09. 5:30 8(2100m)
Do, 29.09. 5:00 2(1800m) 8(2400m)
Do, 29.09. 4:30 8(1800m)
Do, 29.09. 4:00 5(1500m) 8(2400m) 8(7800m)
Ortszeit Luftdruck NN (hPa) Tendenz (hPa in 3 Std.)
Do, 29.09. 2:00 1003 - 0,2
Mi, 28.09. 20:00 1001 + 0,8
Mi, 28.09. 14:00 1000 + 0,8
Mi, 28.09. 8:00 997 - 0,2
Mi, 28.09. 2:00 1001 - 2,0
Di, 27.09. 20:00 1003 + 0,2
Di, 27.09. 14:00 1002 - 0,1
Di, 27.09. 8:00 1001 + 1,5
Ortszeit Luftdruck NN (hPa) Tendenz (hPa in 3 Std.)
Do, 29.09. 7:00 1003 - 0,3
Do, 29.09. 6:50 1003 keine Meldung
Do, 29.09. 6:40 1003 keine Meldung
Do, 29.09. 6:30 1003 - 0,2
Do, 29.09. 6:20 1003 keine Meldung
Do, 29.09. 6:10 1003 keine Meldung
Do, 29.09. 6:00 1003 - 0,5
Do, 29.09. 5:30 1003 - 0,4
Do, 29.09. 5:00 1003 0,0
Do, 29.09. 4:30 1003 - 0,2
Do, 29.09. 4:00 1003 - 0,3
Ortszeit Schneehöhe (cm)
Do, 29.09. 2:00 0
Mi, 28.09. 20:00 0
Mi, 28.09. 14:00 0
Mi, 28.09. 8:00 0
Mi, 28.09. 2:00 0
Di, 27.09. 20:00 0
Di, 27.09. 14:00 0
Di, 27.09. 8:00 0
Ortszeit Schneehöhe (cm)
Do, 29.09. 7:00 0
Do, 29.09. 6:50 0
Do, 29.09. 6:40 0
Do, 29.09. 6:30 0
Do, 29.09. 6:20 0
Do, 29.09. 6:10 0
Do, 29.09. 6:00 0
Do, 29.09. 5:30 0
Do, 29.09. 5:00 0
Do, 29.09. 4:30 0
Do, 29.09. 4:00 0
Link zu dieser Seite / Seite empfehlen

Das Wetter in ...